Location: Chavannes
(47.1090°N, 0.2226°W)
Time: 15:20:46
(UTC+00:00)

H-2A R/B - Pass Details

Date: 16 October 2021
Orbit: 528 x 650 km, 98.3° (Epoch: 07 December)

Event Time Altitude Azimuth Distance (km) Brightness Sun altitude
Rises 18:51:53 0° 175° (S) 2,935 5.9 -17.8°
Reaches altitude 10° 18:54:09 10° 180° (S) 2,018 5.1 -18.2°
Maximum altitude 18:58:28 56° 259° (WSW) 749 3.3 -19.0°
Drops below altitude 10° 19:02:42 10° 338° (NNW) 1,972 5.5 -19.7°
Sets 19:04:53 0° 342° (NNW) 2,860 6.3 -20.0°
